Regional Weather Roundup
Issued by NWS Charleston, SC

Current Version | Previous Version | Graphics & Text | Print | Product List | Glossary On
Versions: 1 2 3 4 5 6 7 8 9 10 11 12 13 14 15 16 17 18 19 20 21 22 23 24 25 26 27 28 29 30 31 32 33 34 35 36 37 38 39 40 41 42 43 44 45 46 47 48 49 50
000
ASUS42 KCHS 062112
RWRCHS

REGIONAL WEATHER ROUNDUP
NATIONAL WEATHER SERVICE CHARLESTON SC
500 PM EDT WED MAY 06 2015

NOTE: "FAIR" INDICATES FEW OR NO CLOUDS BELOW 12,000 FEET WITH NO
SIGNIFICANT WEATHER AND/OR OBSTRUCTIONS TO VISIBILITY.

NOT ALL STATIONS ARE QUALITY CONTROLLED BY THE NATIONAL
WEATHER SERVICE. USE DATA WITH CAUTION...ESPECIALLY
DEWPOINT OBSERVATIONS.

SCZ027-030-031-034>040-042>050-062200-
...SOUTHEAST SOUTH CAROLINA...

CITY           SKY/WX    TMP DP  RH WIND       PRES   REMARKS
N CHARLESTON   PTSUNNY   80  58  46 E14G21    30.09F
WATERFRONT PRK NOT AVBL
MOUNT PLEASANT FAIR      77  61  57 MISG      30.10S
PINOPOLIS      NOT AVBL
MONCKS CORNER  FAIR      82  54  36 E8        30.09F
SUMMERVILLE    FAIR      81  59  47 N8        30.10S
BEAUFORT MCAS  PTSUNNY   77  63  61 E10       30.09S
BEAUFORT ARPT  MOCLDY    77  63  61 E13G18    30.09S
HILTON HEAD IS PTSUNNY   73  64  73 NE12G17   30.10F
WALTERBORO     PTCLDY    79  54  41 E10       30.10S
ALLENDALE      FAIR      79  52  38 CALM      30.10F

...SOUTHERN MIDLANDS AND PEE DEE...

CITY           SKY/WX    TMP DP  RH WIND       PRES   REMARKS
GEORGETOWN     NOT AVBL
KINGSTREE      NOT AVBL
ORANGEBURG     PTSUNNY   81  46  29 NE10G16   30.11S
BARNWELL       FAIR      81  54  39 CALM      30.11F
AIKEN          FAIR      79  46  31 NE7       30.14F
MANNING        FAIR      81  50  34 NE7       30.10F
COLUMBIA       CLOUDY    83  47  28 N10       30.10F
SUMTER         PTSUNNY   82  45  27 SE9       30.09F
FLORENCE       MOSUNNY   83  49  30 E12       30.11F
MYRTLE BEACH   MOSUNNY   75  59  57 E17G23    30.14F
N MYRTLE BEACH CLOUDY    75  57  53 E10G18    30.12F

$$

GAZ063-065-086>088-099>101-113>116-118-119-134>141-150-062200-
...SOUTHEAST GEORGIA...

CITY           SKY/WX    TMP DP  RH WIND       PRES   REMARKS
SAVANNAH ARPT  CLOUDY    77  60  55 E12       30.09F
HUNTER AAF     PTSUNNY   75  61  60 E15       30.07S
FORT STEWART   PTSUNNY   80  63  57 SE8       30.07S
STATESBORO       N/A     80  55  42 NE6       30.10S
SYLVANIA       PTCLDY    80  58  46 E9        30.11S
CLAXTON        FAIR      79  59  50 NE6       30.09S

...CSRA...CENTRAL AND FAR SOUTHEAST GEORGIA...

CITY           SKY/WX    TMP DP  RH WIND       PRES   REMARKS
THOMSON        SUNNY     83  56  39 NE5       30.15F
AUGUSTA-BUSH   MOSUNNY   81  52  36 NE9       30.10S
AUGUSTA-DANIEL MOSUNNY   83  53  35 NE8       30.11F
SWAINSBORO     FAIR      82  27  13 E12       30.11S
VIDALIA        MOSUNNY   81  55  41 CALM      30.09F
EASTMAN        FAIR      83  55  38 E7        30.12S
HAZLEHURST     FAIR      81  56  42 NE5       30.08S
ALMA           MOSUNNY   80  60  50 NE8G17    30.09S
WAYCROSS       CLOUDY    81  66  60 E12       30.09S
JESUP          CLOUDY    79  66  65 CALM      30.09F
BAXLEY         CLOUDY    79  63  57 E6        30.09S
BRUNSWICK      CLOUDY    77  63  61 NE15      30.09S
SAINT SIMONS   CLOUDY    74  63  68 NE15      30.08F

$$

SCZ027-028-034-036>038-045-046-048>050-GAZ119-141-062200-
...LAKE AND SUPPLEMENTAL COASTAL OBSERVATIONS...

STATION/POSITION TIME  TEMP    WIND        PRES    WAVE   SWELL
                       AIR SEA DIR/SP/G            HT/PER HT/PER/DIR
                 (UTC) (F)     (DEG/KT/KT) (MB)    (FT/S) (FT/S/D)
UPR LAKE MARION  NOT AVBL
WINYAH BAY       1945   72      70/ 15     1019.0
LAKE MURRAY      2000   79      50/  2/  9 1019.3F
ACE BASIN NERRS  1945   79      70/  5     1019.0
FORT PULASKI     2000   72 71   60/ 15/ 19 1019.7F
SAPELO ISLAND    2000   76      50/ 12     1019.0S

$$

ANZ835-935-AMZ111-154-330-350-352-354-370-450-454-472-062200-
...C-MAN AND BUOY OBSERVATIONS...

STATION/POSITION TIME  TEMP    WIND        PRES    WAVE   SWELL
                       AIR SEA DIR/SP/G            HT/PER HT/PER/DIR
                 (UTC) (F)     (DEG/KT/KT) (MB)    (FT/S) (FT/S/D)
BUOY 41004       2050   71 73   30/ 21/ 25 1017.6F   8/ 8   3/15
BUOY 41008       2050   71 70   50/ 17/ 19 1018.6F   6/ 8   5/110/ 8
FOLLY BEACH CMAN 2100   72      60/ 20/ 22 1019.3F
CAPERS NEARSHORE 2008   71      50/ 17/ 25 1019.5F
FRIPP NEARSHORE  2000   72      70/ 19/ 23 1018.6F


STATION/POSITION TIME  TEMP    WIND        PRES    WAVE   SWELL
                       AIR SEA DIR/SP/G            HT/PER HT/PER/DIR
                 (UTC) (F)     (DEG/KT/KT) (MB)    (FT/S) (FT/S/D)
5E ST. MARYS GA  2021      72                N/A     5/10   2/140/11
FRYING PAN BUOY  2050   73 71   70/ 17/ 21 1019.3F   6/ 7
BUOY 41025       2050   72 74  100/ 14/ 16 1021.3F   4/ 8   3/150/ 8
CAPE LOOKOUT NC  2000   69      80/  9/ 10 1020.8F
BUOY 41002       2050   70 70  100/ 16/ 19 1016.4R  10/ 8   5/ 70/11
BUOY 41010       2020   73 78  360/ 19/ 23 1014.4R
ST AUGUSTINE FL  2100   71 73  360/ 19/ 22 1018.4F


$$


USA.gov is the U.S. government's official web portal to all federal, state and local government web resources and services.